Time,TemperatureF,DewpointF,PressureIn,WindDirection,WindDirectionDegrees,WindSpeedMPH,WindSpeedGustMPH,Humidity,HourlyPrecipIn,Conditions,Clouds,dailyrainin,SoftwareType,DateUTC
2013-01-04 00:01:00,27.0,22.5,29.15,East,90,4.6,4.6,83,0.00,CLR,SKC,0.00,WeatherDisplay:10.37,2013-01-04 05:01:00,
2013-01-04 00:02:00,27.0,22.5,29.15,East,90,4.6,4.6,83,0.00,CLR,SKC,0.00,WeatherDisplay:10.37,2013-01-04 05:02:00,
2013-01-04 00:03:00,27.0,22.5,29.15,East,90,4.6,4.6,83,0.00,CLR,SKC,0.00,WeatherDisplay:10.37,2013-01-04 05:03:00,
2013-01-04 00:07:00,27.0,22.5,29.14,East,90,4.6,4.6,83,0.00,CLR,SKC,0.00,WeatherDisplay:10.37,2013-01-04 05:07:00,
2013-01-04 00:12:00,27.0,22.5,29.15,NW,315,4.6,4.6,83,0.00,CLR,SKC,0.00,WeatherDisplay:10.37,2013-01-04 05:12:00,
2013-01-04 00:17:00,27.0,22.5,29.14,SE,135,10.4,10.4,83,0.00,CLR,SKC,0.00,WeatherDisplay:10.37,2013-01-04 05:17:00,
2013-01-04 00:22:00,27.0,22.5,29.14,West,270,9.2,9.2,83,0.00,CLR,SKC,0.00,WeatherDisplay:10.37,2013-01-04 05:22:00,
2013-01-04 00:27:00,27.0,22.2,29.14,West,270,6.9,6.9,82,0.00,CLR,SKC,0.00,WeatherDisplay:10.37,2013-01-04 05:27:00,
2013-01-04 00:32:00,27.0,22.5,29.14,SE,135,9.2,9.2,83,0.00,CLR,SKC,0.00,WeatherDisplay:10.37,2013-01-04 05:32:00,
2013-01-04 00:38:00,27.0,22.5,29.14,NW,315,10.4,10.4,83,0.00,CLR,SKC,0.00,WeatherDisplay:10.37,2013-01-04 05:38:00,
2013-01-04 00:43:00,27.0,22.5,29.13,East,90,10.4,10.4,83,0.00,CLR,SKC,0.00,WeatherDisplay:10.37,2013-01-04 05:43:00,
2013-01-04 00:48:00,27.1,22.7,29.13,NW,315,11.5,11.5,83,0.00,CLR,SKC,0.00,WeatherDisplay:10.37,2013-01-04 05:48:00,
2013-01-04 00:53:00,27.1,22.7,29.13,North,0,16.1,16.1,83,0.00,CLR,SKC,0.00,WeatherDisplay:10.37,2013-01-04 05:53:00,
2013-01-04 00:58:00,27.1,22.7,29.14,South,180,6.9,6.9,83,0.00,CLR,SKC,0.00,WeatherDisplay:10.37,2013-01-04 05:58:00,
2013-01-04 01:03:00,27.1,22.7,29.14,North,0,6.9,6.9,83,0.00,CLR,SKC,0.00,WeatherDisplay:10.37,2013-01-04 06:03:00,
2013-01-04 01:08:00,27.1,22.7,29.14,North,0,6.9,6.9,83,0.00,CLR,SKC,0.00,WeatherDisplay:10.37,2013-01-04 06:08:00,
2013-01-04 01:13:00,27.1,22.7,29.14,NW,315,9.2,9.2,83,0.00,CLR,SKC,0.00,WeatherDisplay:10.37,2013-01-04 06:13:00,
2013-01-04 01:18:00,27.1,22.9,29.13,East,90,8.1,8.1,84,0.00,CLR,SKC,0.00,WeatherDisplay:10.37,2013-01-04 06:18:00,
2013-01-04 01:23:00,27.1,22.9,29.13,South,180,11.5,11.5,84,0.00,CLR,SKC,0.00,WeatherDisplay:10.37,2013-01-04 06:23:00,
2013-01-04 01:28:00,27.0,22.8,29.14,South,180,11.5,11.5,84,0.00,CLR,SKC,0.00,WeatherDisplay:10.37,2013-01-04 06:28:00,
2013-01-04 01:33:00,27.0,22.8,29.13,West,270,5.8,5.8,84,0.00,CLR,SKC,0.00,WeatherDisplay:10.37,2013-01-04 06:33:00,
2013-01-04 01:38:00,27.0,22.8,29.13,North,1,11.5,11.5,84,0.00,CLR,SKC,0.00,WeatherDisplay:10.37,2013-01-04 06:38:00,
2013-01-04 01:43:00,27.0,22.8,29.13,SSW,202,10.4,10.4,84,0.00,CLR,SKC,0.00,WeatherDisplay:10.37,2013-01-04 06:43:00,
2013-01-04 01:48:00,27.0,22.8,29.14,North,0,5.8,5.8,84,0.00,CLR,SKC,0.00,WeatherDisplay:10.37,2013-01-04 06:48:00,
2013-01-04 01:53:00,27.0,22.5,29.14,West,270,12.7,12.7,83,0.00,CLR,SKC,0.00,WeatherDisplay:10.37,2013-01-04 06:53:00,
2013-01-04 01:58:00,27.0,22.5,29.14,SE,135,11.5,11.5,83,0.00,CLR,SKC,0.00,WeatherDisplay:10.37,2013-01-04 06:58:00,
2013-01-04 02:03:00,27.0,22.5,29.14,SE,135,12.7,12.7,83,0.00,CLR,SKC,0.00,WeatherDisplay:10.37,2013-01-04 07:03:00,
2013-01-04 02:08:00,27.0,22.5,29.14,West,270,12.7,12.7,83,0.00,CLR,SKC,0.00,WeatherDisplay:10.37,2013-01-04 07:08:00,
2013-01-04 02:13:00,27.0,22.2,29.15,North,2,13.8,13.8,82,0.00,CLR,SKC,0.00,WeatherDisplay:10.37,2013-01-04 07:13:00,
2013-01-04 02:18:00,27.0,22.5,29.14,West,270,4.6,4.6,83,0.00,CLR,SKC,0.00,WeatherDisplay:10.37,2013-01-04 07:18:00,
2013-01-04 02:23:00,27.0,22.2,29.15,SW,225,15.0,15.0,82,0.00,CLR,SKC,0.00,WeatherDisplay:10.37,2013-01-04 07:23:00,
2013-01-04 02:28:00,27.0,22.2,29.15,North,7,11.5,11.5,82,0.00,CLR,SKC,0.00,WeatherDisplay:10.37,2013-01-04 07:28:00,
2013-01-04 02:33:00,27.0,22.2,29.15,South,180,8.1,8.1,82,0.00,CLR,SKC,0.00,WeatherDisplay:10.37,2013-01-04 07:33:00,
2013-01-04 02:38:00,27.0,22.2,29.16,ENE,68,10.4,10.4,82,0.00,CLR,SKC,0.00,WeatherDisplay:10.37,2013-01-04 07:38:00,
2013-01-04 02:43:00,26.8,22.0,29.15,North,0,8.1,8.1,82,0.00,CLR,SKC,0.00,WeatherDisplay:10.37,2013-01-04 07:43:00,
2013-01-04 02:48:00,26.8,22.0,29.16,North,3,10.4,10.4,82,0.00,CLR,SKC,0.00,WeatherDisplay:10.37,2013-01-04 07:48:00,
2013-01-04 02:53:00,26.8,22.0,29.16,North,0,6.9,6.9,82,0.00,CLR,SKC,0.00,WeatherDisplay:10.37,2013-01-04 07:53:00,
2013-01-04 02:58:00,26.8,22.3,29.15,North,0,12.7,12.7,83,0.00,CLR,SKC,0.00,WeatherDisplay:10.37,2013-01-04 07:58:00,
2013-01-04 03:03:00,26.8,22.3,29.16,NW,315,10.7,10.7,83,0.00,CLR,SKC,0.00,WeatherDisplay:10.37,2013-01-04 08:03:00,
2013-01-04 03:08:00,26.8,22.6,29.16,West,270,10.4,10.4,84,0.00,CLR,SKC,0.00,WeatherDisplay:10.37,2013-01-04 08:08:00,
2013-01-04 03:13:00,26.8,22.6,29.15,North,0,13.8,13.8,84,0.00,CLR,SKC,0.00,WeatherDisplay:10.37,2013-01-04 08:13:00,
2013-01-04 03:18:00,26.8,22.6,29.15,WNW,292,15.0,15.0,84,0.00,CLR,SKC,0.00,WeatherDisplay:10.37,2013-01-04 08:18:00,
2013-01-04 03:23:00,26.6,22.7,29.15,West,270,10.4,10.4,85,0.00,CLR,SKC,0.00,WeatherDisplay:10.37,2013-01-04 08:23:00,
2013-01-04 03:28:00,26.8,22.9,29.15,NE,45,6.9,6.9,85,0.00,CLR,SKC,0.00,WeatherDisplay:10.37,2013-01-04 08:28:00,
2013-01-04 03:33:00,26.6,22.7,29.15,West,270,11.5,11.5,85,0.00,CLR,SKC,0.00,WeatherDisplay:10.37,2013-01-04 08:33:00,
2013-01-04 03:38:00,26.6,22.7,29.16,East,90,6.9,6.9,85,0.00,CLR,SKC,0.00,WeatherDisplay:10.37,2013-01-04 08:38:00,
2013-01-04 03:43:00,26.6,23.0,29.15,South,180,3.5,3.5,86,0.00,CLR,SKC,0.00,WeatherDisplay:10.37,2013-01-04 08:43:00,
2013-01-04 03:49:00,26.6,23.0,29.15,South,180,5.8,5.8,86,0.00,CLR,SKC,0.00,WeatherDisplay:10.37,2013-01-04 08:49:00,
2013-01-04 03:54:00,26.6,23.0,29.16,West,270,10.4,10.4,86,0.00,CLR,SKC,0.00,WeatherDisplay:10.37,2013-01-04 08:54:00,
2013-01-04 03:59:00,26.8,23.2,29.16,NNE,16,15.0,15.0,86,0.00,CLR,SKC,0.00,WeatherDisplay:10.37,2013-01-04 08:59:00,
2013-01-04 04:04:00,26.8,23.2,29.16,South,180,3.5,3.5,86,0.00,CLR,SKC,0.00,WeatherDisplay:10.37,2013-01-04 09:04:00,
2013-01-04 04:09:00,26.8,23.4,29.16,SE,135,10.4,10.4,87,0.00,CLR,SKC,0.00,WeatherDisplay:10.37,2013-01-04 09:09:00,
2013-01-04 04:14:00,26.8,23.4,29.16,South,180,12.7,12.7,87,0.00,CLR,SKC,0.00,WeatherDisplay:10.37,2013-01-04 09:14:00,
2013-01-04 04:19:00,26.8,23.4,29.16,NNE,13,10.4,10.4,87,0.00,CLR,SKC,0.00,WeatherDisplay:10.37,2013-01-04 09:19:00,
2013-01-04 04:24:00,26.8,23.4,29.15,NE,45,5.8,5.8,87,0.00,CLR,SKC,0.00,WeatherDisplay:10.37,2013-01-04 09:24:00,
2013-01-04 04:29:00,26.8,23.4,29.16,East,90,10.4,10.4,87,0.00,CLR,SKC,0.00,WeatherDisplay:10.37,2013-01-04 09:29:00,
2013-01-04 04:34:00,26.8,23.4,29.16,NW,315,8.1,8.1,87,0.00,CLR,SKC,0.00,WeatherDisplay:10.37,2013-01-04 09:34:00,
2013-01-04 04:39:00,26.8,23.4,29.16,North,5,12.7,12.7,87,0.00,CLR,SKC,0.00,WeatherDisplay:10.37,2013-01-04 09:39:00,
2013-01-04 04:44:00,26.8,23.4,29.15,NW,315,10.4,10.4,87,0.00,CLR,SKC,0.00,WeatherDisplay:10.37,2013-01-04 09:44:00,
2013-01-04 04:49:00,26.8,23.4,29.16,North,6,8.1,8.1,87,0.00,CLR,SKC,0.00,WeatherDisplay:10.37,2013-01-04 09:49:00,
2013-01-04 04:54:00,26.8,23.2,29.15,South,180,12.7,12.7,86,0.00,CLR,SKC,0.00,WeatherDisplay:10.37,2013-01-04 09:54:00,
2013-01-04 04:58:00,26.8,23.2,29.16,NNE,12,10.4,10.4,86,0.00,CLR,SKC,0.00,WeatherDisplay:10.37,2013-01-04 09:58:00,
2013-01-04 05:04:00,26.8,23.2,29.15,NW,315,5.8,5.8,86,0.00,CLR,SKC,0.00,WeatherDisplay:10.37,2013-01-04 10:04:00,
2013-01-04 05:09:00,26.8,22.9,29.15,NE,45,8.1,8.1,85,0.00,CLR,SKC,0.00,WeatherDisplay:10.37,2013-01-04 10:09:00,
2013-01-04 05:14:00,26.8,22.9,29.15,West,270,10.4,10.4,85,0.00,CLR,SKC,0.00,WeatherDisplay:10.37,2013-01-04 10:14:00,
2013-01-04 05:19:00,27.0,22.8,29.15,South,180,15.0,15.0,84,0.00,CLR,SKC,0.00,WeatherDisplay:10.37,2013-01-04 10:19:00,
2013-01-04 05:24:00,27.0,22.8,29.14,East,90,6.9,6.9,84,0.00,CLR,SKC,0.00,WeatherDisplay:10.37,2013-01-04 10:24:00,
2013-01-04 05:29:00,27.0,22.8,29.15,South,180,5.8,5.8,84,0.00,CLR,SKC,0.00,WeatherDisplay:10.37,2013-01-04 10:29:00,
2013-01-04 05:34:00,27.0,22.8,29.15,NW,315,11.5,11.5,84,0.00,CLR,SKC,0.00,WeatherDisplay:10.37,2013-01-04 10:34:00,
2013-01-04 05:39:00,27.0,22.8,29.15,East,90,10.4,10.4,84,0.00,CLR,SKC,0.00,WeatherDisplay:10.37,2013-01-04 10:39:00,
2013-01-04 05:44:00,27.0,22.8,29.15,North,11,17.3,17.3,84,0.00,CLR,SKC,0.00,WeatherDisplay:10.37,2013-01-04 10:44:00,
2013-01-04 05:49:00,27.0,22.8,29.14,NW,315,15.0,15.0,84,0.00,CLR,SKC,0.00,WeatherDisplay:10.37,2013-01-04 10:49:00,
2013-01-04 05:55:00,27.0,22.8,29.14,South,180,4.6,4.6,84,0.00,CLR,SKC,0.00,WeatherDisplay:10.37,2013-01-04 10:55:00,
2013-01-04 06:00:00,27.0,22.8,29.15,North,0,11.5,11.5,84,0.00,CLR,SKC,0.00,WeatherDisplay:10.37,2013-01-04 11:00:00,
2013-01-04 06:05:00,27.0,22.8,29.14,North,0,6.9,6.9,84,0.00,CLR,SKC,0.00,WeatherDisplay:10.37,2013-01-04 11:05:00,
2013-01-04 06:11:00,27.1,22.7,29.14,West,270,11.5,11.5,83,0.00,CLR,SKC,0.00,WeatherDisplay:10.37,2013-01-04 11:11:00,
2013-01-04 06:16:00,27.1,22.7,29.15,North,8,15.0,15.0,83,0.00,CLR,SKC,0.00,WeatherDisplay:10.37,2013-01-04 11:16:00,
2013-01-04 06:21:00,27.1,22.7,29.15,North,0,19.6,19.6,83,0.00,CLR,SKC,0.00,WeatherDisplay:10.37,2013-01-04 11:21:00,
2013-01-04 06:26:00,27.1,22.7,29.15,North,8,10.4,10.4,83,0.00,CLR,SKC,0.00,WeatherDisplay:10.37,2013-01-04 11:26:00,
2013-01-04 06:31:00,27.1,22.7,29.15,North,5,8.1,8.1,83,0.00,CLR,SKC,0.00,WeatherDisplay:10.37,2013-01-04 11:31:00,
2013-01-04 06:36:00,27.1,22.7,29.16,East,90,10.4,10.4,83,0.00,CLR,SKC,0.00,WeatherDisplay:10.37,2013-01-04 11:36:00,
2013-01-04 06:41:00,27.1,22.7,29.15,North,0,9.8,9.8,83,0.00,CLR,SKC,0.00,WeatherDisplay:10.37,2013-01-04 11:41:00,
2013-01-04 06:46:00,27.1,22.7,29.15,NW,315,12.7,12.7,83,0.00,CLR,SKC,0.00,WeatherDisplay:10.37,2013-01-04 11:46:00,
2013-01-04 06:51:00,27.1,22.9,29.15,NNE,14,10.4,10.4,84,0.00,CLR,SKC,0.00,WeatherDisplay:10.37,2013-01-04 11:51:00,
2013-01-04 06:56:00,27.1,22.9,29.15,North,0,10.4,10.4,84,0.00,CLR,SKC,0.00,WeatherDisplay:10.37,2013-01-04 11:56:00,
2013-01-04 07:01:00,27.1,22.9,29.16,South,180,13.8,13.8,84,0.00,CLR,SKC,0.00,WeatherDisplay:10.37,2013-01-04 12:01:00,
2013-01-04 07:06:00,27.1,22.9,29.16,South,180,13.8,13.8,84,0.00,CLR,SKC,0.00,WeatherDisplay:10.37,2013-01-04 12:06:00,
2013-01-04 07:11:00,27.1,22.9,29.16,North,10,8.1,8.1,84,0.00,CLR,SKC,0.00,WeatherDisplay:10.37,2013-01-04 12:11:00,
2013-01-04 07:16:00,27.0,23.1,29.15,North,6,4.6,4.6,85,0.00,CLR,SKC,0.00,WeatherDisplay:10.37,2013-01-04 12:16:00,
2013-01-04 07:21:00,27.0,23.1,29.15,South,180,11.5,11.5,85,0.00,CLR,SKC,0.00,WeatherDisplay:10.37,2013-01-04 12:21:00,
2013-01-04 07:26:00,27.1,23.2,29.15,West,270,8.1,8.1,85,0.00,CLR,SKC,0.00,WeatherDisplay:10.37,2013-01-04 12:26:00,
2013-01-04 07:31:00,27.1,23.2,29.15,East,90,8.1,8.1,85,0.00,CLR,SKC,0.00,WeatherDisplay:10.37,2013-01-04 12:31:00,
2013-01-04 07:36:00,27.1,23.2,29.16,South,180,8.1,8.1,85,0.00,CLR,SKC,0.00,WeatherDisplay:10.37,2013-01-04 12:36:00,
2013-01-04 07:41:00,27.0,23.1,29.15,NW,315,9.2,9.2,85,0.00,CLR,SKC,0.00,WeatherDisplay:10.37,2013-01-04 12:41:00,
2013-01-04 07:46:00,27.1,23.2,29.16,NW,315,8.1,8.1,85,0.00,CLR,SKC,0.00,WeatherDisplay:10.37,2013-01-04 12:46:00,
2013-01-04 07:51:00,27.1,23.2,29.16,NE,45,9.2,9.2,85,0.00,CLR,SKC,0.00,WeatherDisplay:10.37,2013-01-04 12:51:00,
2013-01-04 07:56:00,27.1,22.9,29.16,SE,135,5.8,5.8,84,0.00,CLR,SKC,0.00,WeatherDisplay:10.37,2013-01-04 12:56:00,
2013-01-04 08:01:00,27.3,23.1,29.15,West,270,12.7,12.7,84,0.00,CLR,SKC,0.00,WeatherDisplay:10.37,2013-01-04 13:01:00,
2013-01-04 08:06:00,27.3,23.1,29.15,West,270,12.7,12.7,84,0.00,CLR,SKC,0.00,WeatherDisplay:10.37,2013-01-04 13:06:00,
2013-01-04 08:11:00,27.3,23.1,29.16,North,1,5.8,5.8,84,0.00,CLR,SKC,0.00,WeatherDisplay:10.37,2013-01-04 13:11:00,
2013-01-04 08:16:00,27.5,23.3,29.16,NE,45,8.1,8.1,84,0.00,CLR,SKC,0.00,WeatherDisplay:10.37,2013-01-04 13:16:00,
2013-01-04 08:21:00,27.5,23.3,29.16,North,0,6.9,6.9,84,0.00,CLR,SKC,0.00,WeatherDisplay:10.37,2013-01-04 13:21:00,
2013-01-04 08:27:00,27.5,23.3,29.16,SE,135,10.4,10.4,84,0.00,CLR,SKC,0.00,WeatherDisplay:10.37,2013-01-04 13:27:00,
2013-01-04 08:32:00,27.7,23.5,29.16,WNW,292,8.1,8.1,84,0.00,CLR,SKC,0.00,WeatherDisplay:10.37,2013-01-04 13:32:00,
2013-01-04 08:37:00,27.7,23.2,29.16,SE,135,19.6,19.6,83,0.00,CLR,SKC,0.00,WeatherDisplay:10.37,2013-01-04 13:37:00,
2013-01-04 08:42:00,27.9,23.4,29.16,North,0,10.4,10.4,83,0.00,CLR,SKC,0.00,WeatherDisplay:10.37,2013-01-04 13:42:00,
2013-01-04 08:47:00,27.9,23.4,29.16,East,90,8.1,8.1,83,0.00,CLR,SKC,0.00,WeatherDisplay:10.37,2013-01-04 13:47:00,
2013-01-04 08:52:00,28.0,23.5,29.16,North,0,15.0,15.0,83,0.00,CLR,SKC,0.00,WeatherDisplay:10.37,2013-01-04 13:52:00,
2013-01-04 08:57:00,28.0,23.3,29.16,South,180,15.0,15.0,82,0.00,CLR,SKC,0.00,WeatherDisplay:10.37,2013-01-04 13:57:00,
2013-01-04 09:02:00,28.0,23.3,29.16,North,0,8.1,8.1,82,0.00,CLR,SKC,0.00,WeatherDisplay:10.37,2013-01-04 14:02:00,
2013-01-04 09:07:00,28.0,23.3,29.17,West,270,8.1,8.1,82,0.00,CLR,SKC,0.00,WeatherDisplay:10.37,2013-01-04 14:07:00,
2013-01-04 09:12:00,28.2,23.4,29.17,SE,135,15.0,15.0,82,0.00,CLR,SKC,0.00,WeatherDisplay:10.37,2013-01-04 14:12:00,
2013-01-04 09:17:00,28.2,23.7,29.17,North,3,11.5,11.5,83,0.00,CLR,SKC,0.00,WeatherDisplay:10.37,2013-01-04 14:17:00,
2013-01-04 09:22:00,28.2,23.7,29.17,NNE,13,15.0,15.0,83,0.00,CLR,SKC,0.00,WeatherDisplay:10.37,2013-01-04 14:22:00,
2013-01-04 09:27:00,28.2,23.7,29.18,South,180,8.1,8.1,83,0.00,CLR,SKC,0.00,WeatherDisplay:10.37,2013-01-04 14:27:00,
2013-01-04 09:32:00,28.2,24.0,29.17,North,8,9.2,9.2,84,0.00,CLR,SKC,0.00,WeatherDisplay:10.37,2013-01-04 14:32:00,
2013-01-04 09:37:00,28.2,24.0,29.17,North,0,17.3,17.3,84,0.00,CLR,SKC,0.00,WeatherDisplay:10.37,2013-01-04 14:37:00,
2013-01-04 09:42:00,28.2,24.0,29.18,North,0,12.7,12.7,84,0.00,CLR,SKC,0.00,WeatherDisplay:10.37,2013-01-04 14:42:00,
2013-01-04 09:47:00,28.2,24.3,29.18,North,8,5.8,5.8,85,0.00,CLR,SKC,0.00,WeatherDisplay:10.37,2013-01-04 14:47:00,
2013-01-04 09:52:00,28.2,24.0,29.18,NNE,16,15.0,15.0,84,0.00,CLR,SKC,0.00,WeatherDisplay:10.37,2013-01-04 14:52:00,
2013-01-04 09:57:00,28.4,24.2,29.18,South,180,9.2,9.2,84,0.00,CLR,SKC,0.00,WeatherDisplay:10.37,2013-01-04 14:57:00,
2013-01-04 10:02:00,28.4,24.2,29.18,SE,135,9.2,9.2,84,0.00,CLR,SKC,0.00,WeatherDisplay:10.37,2013-01-04 15:02:00,
2013-01-04 10:07:00,28.4,24.2,29.18,SE,135,9.2,9.2,84,0.00,CLR,SKC,0.00,WeatherDisplay:10.37,2013-01-04 15:07:00,
2013-01-04 10:12:00,28.4,24.2,29.18,South,180,12.1,12.1,84,0.00,CLR,SKC,0.00,WeatherDisplay:10.37,2013-01-04 15:12:00,
2013-01-04 10:17:00,28.6,24.4,29.18,South,180,5.8,5.8,84,0.00,CLR,SKC,0.00,WeatherDisplay:10.37,2013-01-04 15:17:00,
2013-01-04 10:22:00,28.6,24.6,29.18,North,0,12.7,12.7,85,0.00,CLR,SKC,0.00,WeatherDisplay:10.37,2013-01-04 15:22:00,
2013-01-04 10:28:00,28.6,24.6,29.18,South,180,14.5,14.5,85,0.00,CLR,SKC,0.00,WeatherDisplay:10.37,2013-01-04 15:28:00,
2013-01-04 10:33:00,28.4,24.2,29.18,WNW,292,10.4,10.4,84,0.00,CLR,SKC,0.00,WeatherDisplay:10.37,2013-01-04 15:33:00,
2013-01-04 10:38:00,28.6,24.6,29.18,South,180,9.2,9.2,85,0.00,CLR,SKC,0.00,WeatherDisplay:10.37,2013-01-04 15:38:00,
2013-01-04 10:43:00,28.6,24.6,29.17,NW,315,8.1,8.1,85,0.00,CLR,SKC,0.00,WeatherDisplay:10.37,2013-01-04 15:43:00,
2013-01-04 10:48:00,28.6,24.6,29.17,NNE,15,11.5,11.5,85,0.00,CLR,SKC,0.00,WeatherDisplay:10.37,2013-01-04 15:48:00,
2013-01-04 10:53:00,28.8,24.8,29.17,North,0,9.2,9.2,85,0.00,CLR,SKC,0.00,WeatherDisplay:10.37,2013-01-04 15:53:00,
2013-01-04 10:58:00,28.8,24.5,29.16,South,180,13.8,13.8,84,0.00,CLR,SKC,0.00,WeatherDisplay:10.37,2013-01-04 15:58:00,
2013-01-04 11:03:00,28.8,24.5,29.17,ENE,68,16.1,16.1,84,0.00,CLR,SKC,0.00,WeatherDisplay:10.37,2013-01-04 16:03:00,
2013-01-04 11:08:00,28.9,24.7,29.16,South,180,11.5,11.5,84,0.00,CLR,SKC,0.00,WeatherDisplay:10.37,2013-01-04 16:08:00,
2013-01-04 11:13:00,29.1,24.6,29.16,South,180,15.9,15.9,83,0.00,CLR,SKC,0.00,WeatherDisplay:10.37,2013-01-04 16:13:00,
2013-01-04 11:18:00,29.1,24.6,29.16,South,180,13.8,13.8,83,0.00,CLR,SKC,0.00,WeatherDisplay:10.37,2013-01-04 16:18:00,
2013-01-04 11:23:00,29.3,24.5,29.15,NW,315,12.7,12.7,82,0.00,CLR,SKC,0.00,WeatherDisplay:10.37,2013-01-04 16:23:00,
2013-01-04 11:29:00,29.5,24.4,29.16,South,180,19.6,19.6,81,0.00,CLR,SKC,0.00,WeatherDisplay:10.37,2013-01-04 16:29:00,
2013-01-04 11:34:00,29.7,24.2,29.15,West,270,20.7,20.7,80,0.00,CLR,SKC,0.00,WeatherDisplay:10.37,2013-01-04 16:34:00,
2013-01-04 11:39:00,29.7,23.9,29.14,NNE,13,15.0,15.0,79,0.00,CLR,SKC,0.00,WeatherDisplay:10.37,2013-01-04 16:39:00,
2013-01-04 11:44:00,29.8,24.4,29.14,NNE,12,11.5,11.5,80,0.00,CLR,SKC,0.00,WeatherDisplay:10.37,2013-01-04 16:44:00,
2013-01-04 11:49:00,30.2,24.8,29.14,South,180,5.8,5.8,80,0.00,CLR,SKC,0.00,WeatherDisplay:10.37,2013-01-04 16:49:00,
2013-01-04 11:54:00,30.2,24.5,29.14,South,180,16.1,16.1,79,0.00,CLR,SKC,0.00,WeatherDisplay:10.37,2013-01-04 16:54:00,
2013-01-04 11:59:00,30.7,25.0,29.14,West,270,10.4,10.4,79,0.00,CLR,SKC,0.00,WeatherDisplay:10.37,2013-01-04 16:59:00,
2013-01-04 12:04:00,30.7,25.0,29.13,North,1,5.8,5.8,79,0.00,CLR,SKC,0.00,WeatherDisplay:10.37,2013-01-04 17:04:00,
2013-01-04 12:09:00,30.7,24.7,29.13,South,180,15.0,15.0,78,0.00,CLR,SKC,0.00,WeatherDisplay:10.37,2013-01-04 17:09:00,
2013-01-04 12:15:00,30.7,24.4,29.13,NNE,16,11.5,11.5,77,0.00,CLR,SKC,0.00,WeatherDisplay:10.37,2013-01-04 17:15:00,
2013-01-04 12:20:00,30.9,24.6,29.12,West,270,12.7,12.7,77,0.00,CLR,SKC,0.00,WeatherDisplay:10.37,2013-01-04 17:20:00,
2013-01-04 12:25:00,30.9,24.2,29.12,South,180,20.7,20.7,76,0.00,CLR,SKC,0.00,WeatherDisplay:10.37,2013-01-04 17:25:00,
2013-01-04 12:30:00,30.7,23.8,29.12,SE,135,26.5,26.5,75,0.00,CLR,SKC,0.00,WeatherDisplay:10.37,2013-01-04 17:30:00,
2013-01-04 12:35:00,30.7,24.1,29.11,South,180,12.7,12.7,76,0.00,CLR,SKC,0.00,WeatherDisplay:10.37,2013-01-04 17:35:00,
2013-01-04 12:40:00,30.7,23.8,29.11,North,0,15.0,15.0,75,0.00,CLR,SKC,0.00,WeatherDisplay:10.37,2013-01-04 17:40:00,
2013-01-04 12:45:00,31.6,24.6,29.11,NW,315,10.4,10.4,75,0.00,CLR,SKC,0.00,WeatherDisplay:10.37,2013-01-04 17:45:00,
2013-01-04 12:50:00,31.6,24.3,29.10,West,270,15.0,15.0,74,0.00,CLR,SKC,0.00,WeatherDisplay:10.37,2013-01-04 17:50:00,
2013-01-04 12:55:00,32.0,25.0,29.10,South,180,8.1,8.1,75,0.00,CLR,SKC,0.00,WeatherDisplay:10.37,2013-01-04 17:55:00,
2013-01-04 13:00:00,31.8,24.5,29.10,NW,315,10.4,10.4,74,0.00,CLR,SKC,0.00,WeatherDisplay:10.37,2013-01-04 18:00:00,
2013-01-04 13:05:00,31.8,24.5,29.10,NW,315,4.6,4.6,74,0.00,CLR,SKC,0.00,WeatherDisplay:10.37,2013-01-04 18:05:00,
2013-01-04 13:10:00,31.8,24.5,29.10,South,180,8.1,8.1,74,0.00,CLR,SKC,0.00,WeatherDisplay:10.37,2013-01-04 18:10:00,
2013-01-04 13:15:00,32.0,24.6,29.10,West,270,17.3,17.3,74,0.00,CLR,SKC,0.00,WeatherDisplay:10.37,2013-01-04 18:15:00,
2013-01-04 13:20:00,32.5,24.5,29.10,North,10,15.0,15.0,72,0.00,CLR,SKC,0.00,WeatherDisplay:10.37,2013-01-04 18:20:00,
2013-01-04 13:25:00,33.4,25.7,29.10,NNE,12,10.4,10.4,73,0.00,CLR,SKC,0.00,WeatherDisplay:10.37,2013-01-04 18:25:00,
2013-01-04 13:30:00,33.4,24.7,29.10,North,8,20.7,20.7,70,0.00,CLR,SKC,0.00,WeatherDisplay:10.37,2013-01-04 18:30:00,
2013-01-04 13:35:00,33.8,24.7,29.10,North,2,17.3,17.3,69,0.00,CLR,SKC,0.00,WeatherDisplay:10.37,2013-01-04 18:35:00,
2013-01-04 13:40:00,34.2,24.7,29.10,NW,315,17.3,17.3,68,0.00,CLR,SKC,0.00,WeatherDisplay:10.37,2013-01-04 18:40:00,
2013-01-04 13:45:00,33.4,24.0,29.10,North,6,23.0,23.0,68,0.00,CLR,SKC,0.00,WeatherDisplay:10.37,2013-01-04 18:45:00,
2013-01-04 13:50:00,32.4,23.3,29.10,North,0,17.3,17.3,69,0.00,CLR,SKC,0.00,WeatherDisplay:10.37,2013-01-04 18:50:00,
2013-01-04 13:55:00,32.7,23.7,29.10,West,270,15.0,15.0,69,0.00,CLR,SKC,0.00,WeatherDisplay:10.37,2013-01-04 18:55:00,
2013-01-04 14:00:00,33.1,24.0,29.10,SE,135,9.2,9.2,69,0.00,CLR,SKC,0.00,WeatherDisplay:10.37,2013-01-04 19:00:00,
2013-01-04 14:05:00,33.4,24.0,29.10,NE,45,13.8,13.8,68,0.00,CLR,SKC,0.00,WeatherDisplay:10.37,2013-01-04 19:05:00,
2013-01-04 14:10:00,33.1,23.3,29.10,South,180,12.7,12.7,67,0.00,CLR,SKC,0.00,WeatherDisplay:10.37,2013-01-04 19:10:00,
2013-01-04 14:15:00,32.7,23.3,29.10,NNE,15,20.7,20.7,68,0.00,CLR,SKC,0.00,WeatherDisplay:10.37,2013-01-04 19:15:00,
2013-01-04 14:20:00,32.7,23.3,29.10,North,0,15.0,15.0,68,0.00,CLR,SKC,0.00,WeatherDisplay:10.37,2013-01-04 19:20:00,
2013-01-04 14:25:00,33.3,23.8,29.11,South,180,18.4,18.4,68,0.00,CLR,SKC,0.00,WeatherDisplay:10.37,2013-01-04 19:25:00,
2013-01-04 14:30:00,33.3,23.8,29.11,South,180,17.3,17.3,68,0.00,CLR,SKC,0.00,WeatherDisplay:10.37,2013-01-04 19:30:00,
2013-01-04 14:35:00,33.1,23.7,29.11,North,0,12.7,12.7,68,0.00,CLR,SKC,0.00,WeatherDisplay:10.37,2013-01-04 19:35:00,
2013-01-04 14:40:00,32.5,23.5,29.11,NNE,14,12.7,12.7,69,0.00,CLR,SKC,0.00,WeatherDisplay:10.37,2013-01-04 19:40:00,
2013-01-04 14:45:00,32.5,23.5,29.10,NNE,12,17.3,17.3,69,0.00,CLR,SKC,0.00,WeatherDisplay:10.37,2013-01-04 19:45:00,
2013-01-04 14:51:00,32.4,23.3,29.10,SW,225,17.3,17.3,69,0.00,CLR,SKC,0.00,WeatherDisplay:10.37,2013-01-04 19:51:00,
2013-01-04 14:56:00,32.4,23.3,29.10,NW,315,17.3,17.3,69,0.00,CLR,SKC,0.00,WeatherDisplay:10.37,2013-01-04 19:56:00,
2013-01-04 15:01:00,32.5,23.8,29.10,North,0,11.5,11.5,70,0.00,CLR,SKC,0.00,WeatherDisplay:10.37,2013-01-04 20:01:00,
2013-01-04 15:06:00,32.5,23.8,29.10,South,180,13.8,13.8,70,0.00,CLR,SKC,0.00,WeatherDisplay:10.37,2013-01-04 20:06:00,
2013-01-04 15:11:00,32.7,23.7,29.10,NNW,338,8.1,8.1,69,0.00,CLR,SKC,0.00,WeatherDisplay:10.37,2013-01-04 20:11:00,
2013-01-04 15:16:00,32.5,23.5,29.11,South,180,12.7,12.7,69,0.00,CLR,SKC,0.00,WeatherDisplay:10.37,2013-01-04 20:16:00,
2013-01-04 15:21:00,32.4,23.3,29.11,West,270,15.0,15.0,69,0.00,CLR,SKC,0.00,WeatherDisplay:10.37,2013-01-04 20:21:00,
2013-01-04 15:26:00,32.4,23.3,29.11,North,6,12.7,12.7,69,0.00,CLR,SKC,0.00,WeatherDisplay:10.37,2013-01-04 20:26:00,
2013-01-04 15:31:00,32.2,23.1,29.11,North,0,15.0,15.0,69,0.00,CLR,SKC,0.00,WeatherDisplay:10.37,2013-01-04 20:31:00,
2013-01-04 15:36:00,32.2,23.1,29.11,West,270,17.3,17.3,69,0.00,CLR,SKC,0.00,WeatherDisplay:10.37,2013-01-04 20:36:00,
2013-01-04 15:41:00,32.2,23.5,29.11,West,270,18.4,18.4,70,0.00,CLR,SKC,0.00,WeatherDisplay:10.37,2013-01-04 20:41:00,
2013-01-04 15:46:00,32.0,23.3,29.11,East,90,16.1,16.1,70,0.00,CLR,SKC,0.00,WeatherDisplay:10.37,2013-01-04 20:46:00,
2013-01-04 15:51:00,32.0,23.7,29.11,NNE,12,12.7,12.7,71,0.00,CLR,SKC,0.00,WeatherDisplay:10.37,2013-01-04 20:51:00,
2013-01-04 15:56:00,32.0,23.7,29.10,West,270,12.7,12.7,71,0.00,CLR,SKC,0.00,WeatherDisplay:10.37,2013-01-04 20:56:00,
2013-01-04 16:01:00,32.0,23.7,29.10,WNW,292,12.7,12.7,71,0.00,CLR,SKC,0.00,WeatherDisplay:10.37,2013-01-04 21:01:00,
2013-01-04 16:06:00,32.0,23.7,29.10,North,2,10.4,10.4,71,0.00,CLR,SKC,0.00,WeatherDisplay:10.37,2013-01-04 21:06:00,
2013-01-04 16:11:00,32.0,23.7,29.10,NW,315,8.1,8.1,71,0.00,CLR,SKC,0.00,WeatherDisplay:10.37,2013-01-04 21:11:00,
2013-01-04 16:16:00,32.0,23.7,29.10,South,180,11.5,11.5,71,0.00,CLR,SKC,0.00,WeatherDisplay:10.37,2013-01-04 21:16:00,
2013-01-04 16:21:00,31.8,23.5,29.10,West,270,8.1,8.1,71,0.00,CLR,SKC,0.00,WeatherDisplay:10.37,2013-01-04 21:21:00,
2013-01-04 16:26:00,31.8,23.5,29.10,SE,135,10.4,10.4,71,0.00,CLR,SKC,0.00,WeatherDisplay:10.37,2013-01-04 21:26:00,
2013-01-04 16:31:00,31.8,23.5,29.10,South,180,12.7,12.7,71,0.00,CLR,SKC,0.00,WeatherDisplay:10.37,2013-01-04 21:31:00,
2013-01-04 16:36:00,31.6,23.3,29.10,South,180,18.4,18.4,71,0.00,CLR,SKC,0.00,WeatherDisplay:10.37,2013-01-04 21:36:00,
2013-01-04 16:41:00,31.6,23.3,29.10,North,0,6.9,6.9,71,0.00,CLR,SKC,0.00,WeatherDisplay:10.37,2013-01-04 21:41:00,
2013-01-04 16:46:00,31.5,23.1,29.10,West,270,11.5,11.5,71,0.00,CLR,SKC,0.00,WeatherDisplay:10.37,2013-01-04 21:46:00,
2013-01-04 16:51:00,31.3,23.0,29.10,South,180,9.2,9.2,71,0.00,CLR,SKC,0.00,WeatherDisplay:10.37,2013-01-04 21:51:00,
2013-01-04 16:56:00,31.1,22.8,29.10,North,0,5.8,5.8,71,0.00,CLR,SKC,0.00,WeatherDisplay:10.37,2013-01-04 21:56:00,
2013-01-04 17:01:00,31.1,22.8,29.10,West,270,10.4,10.4,71,0.00,CLR,SKC,0.00,WeatherDisplay:10.37,2013-01-04 22:01:00,
2013-01-04 17:06:00,31.1,22.8,29.10,West,270,10.4,10.4,71,0.00,CLR,SKC,0.00,WeatherDisplay:10.37,2013-01-04 22:06:00,
2013-01-04 17:11:00,30.9,22.6,29.10,North,0,10.4,10.4,71,0.00,CLR,SKC,0.00,WeatherDisplay:10.37,2013-01-04 22:11:00,
2013-01-04 17:16:00,30.9,22.6,29.10,West,270,12.7,12.7,71,0.00,CLR,SKC,0.00,WeatherDisplay:10.37,2013-01-04 22:16:00,
2013-01-04 17:21:00,30.7,22.8,29.10,North,0,6.9,6.9,72,0.00,CLR,SKC,0.00,WeatherDisplay:10.37,2013-01-04 22:21:00,
2013-01-04 17:26:00,30.6,22.6,29.10,South,180,8.1,8.1,72,0.00,CLR,SKC,0.00,WeatherDisplay:10.37,2013-01-04 22:26:00,
2013-01-04 17:31:00,30.4,22.4,29.11,West,270,6.9,6.9,72,0.00,CLR,SKC,0.00,WeatherDisplay:10.37,2013-01-04 22:31:00,
2013-01-04 17:36:00,30.6,22.3,29.11,North,8,15.0,15.0,71,0.00,CLR,SKC,0.00,WeatherDisplay:10.37,2013-01-04 22:36:00,
2013-01-04 17:41:00,30.4,22.4,29.11,NNE,16,5.8,5.8,72,0.00,CLR,SKC,0.00,WeatherDisplay:10.37,2013-01-04 22:41:00,
2013-01-04 17:46:00,30.2,22.6,29.12,SE,135,5.8,5.8,73,0.00,CLR,SKC,0.00,WeatherDisplay:10.37,2013-01-04 22:46:00,
2013-01-04 17:51:00,30.0,22.4,29.12,West,270,8.1,8.1,73,0.00,CLR,SKC,0.00,WeatherDisplay:10.37,2013-01-04 22:51:00,
2013-01-04 17:56:00,30.0,22.4,29.11,North,0,5.8,5.8,73,0.00,CLR,SKC,0.00,WeatherDisplay:10.37,2013-01-04 22:56:00,
2013-01-04 18:01:00,29.8,22.2,29.12,NE,45,8.1,8.1,73,0.00,CLR,SKC,0.00,WeatherDisplay:10.37,2013-01-04 23:01:00,
2013-01-04 18:06:00,29.8,22.2,29.11,NE,45,8.1,8.1,73,0.00,CLR,SKC,0.00,WeatherDisplay:10.37,2013-01-04 23:06:00,
2013-01-04 18:11:00,30.6,22.6,29.12,East,90,15.0,15.0,72,0.00,CLR,SKC,0.00,WeatherDisplay:10.37,2013-01-04 23:11:00,
2013-01-04 18:16:00,30.4,22.4,29.12,NNE,15,12.7,12.7,72,0.00,CLR,SKC,0.00,WeatherDisplay:10.37,2013-01-04 23:16:00,
2013-01-04 18:21:00,30.2,22.3,29.13,North,8,16.1,16.1,72,0.00,CLR,SKC,0.00,WeatherDisplay:10.37,2013-01-04 23:21:00,
2013-01-04 18:26:00,30.2,22.3,29.13,NNW,338,8.1,8.1,72,0.00,CLR,SKC,0.00,WeatherDisplay:10.37,2013-01-04 23:26:00,
2013-01-04 18:31:00,30.2,22.3,29.13,North,9,9.2,9.2,72,0.00,CLR,SKC,0.00,WeatherDisplay:10.37,2013-01-04 23:31:00,
2013-01-04 18:36:00,30.2,22.3,29.13,North,0,10.4,10.4,72,0.00,CLR,SKC,0.00,WeatherDisplay:10.37,2013-01-04 23:36:00,
2013-01-04 18:41:00,30.2,22.3,29.14,SE,135,15.0,15.0,72,0.00,CLR,SKC,0.00,WeatherDisplay:10.37,2013-01-04 23:41:00,
2013-01-04 18:46:00,30.4,22.4,29.13,South,180,10.4,10.4,72,0.00,CLR,SKC,0.00,WeatherDisplay:10.37,2013-01-04 23:46:00,
2013-01-04 18:51:00,30.2,22.3,29.13,East,90,10.4,10.4,72,0.00,CLR,SKC,0.00,WeatherDisplay:10.37,2013-01-04 23:51:00,
2013-01-04 18:56:00,30.2,22.3,29.13,West,270,18.4,18.4,72,0.00,CLR,SKC,0.00,WeatherDisplay:10.37,2013-01-04 23:56:00,
2013-01-04 19:01:00,30.2,22.3,29.13,South,180,6.9,6.9,72,0.00,CLR,SKC,0.00,WeatherDisplay:10.37,2013-01-05 00:01:00,
2013-01-04 19:06:00,30.2,22.3,29.13,South,180,6.9,6.9,72,0.00,CLR,SKC,0.00,WeatherDisplay:10.37,2013-01-05 00:06:00,
2013-01-04 19:11:00,30.0,22.4,29.13,North,0,9.2,9.2,73,0.00,CLR,SKC,0.00,WeatherDisplay:10.37,2013-01-05 00:11:00,
2013-01-04 19:16:00,30.0,22.4,29.13,NW,315,9.2,9.2,73,0.00,CLR,SKC,0.00,WeatherDisplay:10.37,2013-01-05 00:16:00,
2013-01-04 19:21:00,29.8,22.2,29.13,North,0,8.1,8.1,73,0.00,CLR,SKC,0.00,WeatherDisplay:10.37,2013-01-05 00:21:00,
2013-01-04 19:26:00,30.0,22.4,29.13,NW,315,10.4,10.4,73,0.00,CLR,SKC,0.00,WeatherDisplay:10.37,2013-01-05 00:26:00,
2013-01-04 19:31:00,29.8,22.2,29.13,South,180,10.7,10.7,73,0.00,CLR,SKC,0.00,WeatherDisplay:10.37,2013-01-05 00:31:00,
2013-01-04 19:36:00,29.8,22.6,29.13,South,180,11.5,11.5,74,0.00,CLR,SKC,0.00,WeatherDisplay:10.37,2013-01-05 00:36:00,
2013-01-04 19:41:00,29.8,22.6,29.14,West,270,5.8,5.8,74,0.00,CLR,SKC,0.00,WeatherDisplay:10.37,2013-01-05 00:41:00,
2013-01-04 19:46:00,29.5,22.2,29.13,North,0,4.6,4.6,74,0.00,CLR,SKC,0.00,WeatherDisplay:10.37,2013-01-05 00:46:00,
2013-01-04 19:51:00,29.3,22.4,29.13,North,5,5.8,5.8,75,0.00,CLR,SKC,0.00,WeatherDisplay:10.37,2013-01-05 00:51:00,
2013-01-04 19:56:00,29.1,22.5,29.13,South,180,6.9,6.9,76,0.00,CLR,SKC,0.00,WeatherDisplay:10.37,2013-01-05 00:56:00,
2013-01-04 20:01:00,28.9,22.3,29.13,West,270,5.8,5.8,76,0.00,CLR,SKC,0.00,WeatherDisplay:10.37,2013-01-05 01:01:00,
2013-01-04 20:06:00,28.9,22.3,29.14,West,270,5.8,5.8,76,0.00,CLR,SKC,0.00,WeatherDisplay:10.37,2013-01-05 01:06:00,
2013-01-04 20:11:00,28.8,22.8,29.14,NNE,12,5.8,5.8,78,0.00,CLR,SKC,0.00,WeatherDisplay:10.37,2013-01-05 01:11:00,
2013-01-04 20:16:00,28.8,22.8,29.15,North,0,6.9,6.9,78,0.00,CLR,SKC,0.00,WeatherDisplay:10.37,2013-01-05 01:16:00,
2013-01-04 20:21:00,28.6,22.6,29.15,South,180,8.1,8.1,78,0.00,CLR,SKC,0.00,WeatherDisplay:10.37,2013-01-05 01:21:00,
2013-01-04 20:26:00,28.8,22.8,29.16,NW,315,12.7,12.7,78,0.00,CLR,SKC,0.00,WeatherDisplay:10.37,2013-01-05 01:26:00,
2013-01-04 20:31:00,28.6,22.9,29.15,South,180,5.8,5.8,79,0.00,CLR,SKC,0.00,WeatherDisplay:10.37,2013-01-05 01:31:00,
2013-01-04 20:37:00,28.8,23.1,29.15,South,180,6.0,6.0,79,0.00,CLR,SKC,0.00,WeatherDisplay:10.37,2013-01-05 01:37:00,
2013-01-04 20:42:00,28.8,23.1,29.16,South,180,6.9,6.9,79,0.00,CLR,SKC,0.00,WeatherDisplay:10.37,2013-01-05 01:42:00,
2013-01-04 20:47:00,28.8,23.1,29.16,South,180,10.4,10.4,79,0.00,CLR,SKC,0.00,WeatherDisplay:10.37,2013-01-05 01:47:00,
2013-01-04 20:52:00,28.6,22.9,29.16,South,180,8.1,8.1,79,0.00,CLR,SKC,0.00,WeatherDisplay:10.37,2013-01-05 01:52:00,
2013-01-04 20:57:00,28.6,22.9,29.16,West,270,9.2,9.2,79,0.00,CLR,SKC,0.00,WeatherDisplay:10.37,2013-01-05 01:57:00,
2013-01-04 21:02:00,28.6,22.9,29.16,West,270,8.1,8.1,79,0.00,CLR,SKC,0.00,WeatherDisplay:10.37,2013-01-05 02:02:00,
2013-01-04 21:07:00,28.6,22.9,29.16,West,270,8.1,8.1,79,0.00,CLR,SKC,0.00,WeatherDisplay:10.37,2013-01-05 02:07:00,
2013-01-04 21:12:00,28.6,22.9,29.16,West,270,6.9,6.9,79,0.00,CLR,SKC,0.00,WeatherDisplay:10.37,2013-01-05 02:12:00,
2013-01-04 21:17:00,28.6,22.9,29.16,West,270,8.1,8.1,79,0.00,CLR,SKC,0.00,WeatherDisplay:10.37,2013-01-05 02:17:00,
2013-01-04 21:22:00,28.4,22.7,29.16,SE,135,6.9,6.9,79,0.00,CLR,SKC,0.00,WeatherDisplay:10.37,2013-01-05 02:22:00,
2013-01-04 21:27:00,28.4,22.7,29.16,South,180,6.9,6.9,79,0.00,CLR,SKC,0.00,WeatherDisplay:10.37,2013-01-05 02:27:00,
2013-01-04 21:32:00,28.4,22.7,29.16,SE,135,10.4,10.4,79,0.00,CLR,SKC,0.00,WeatherDisplay:10.37,2013-01-05 02:32:00,
2013-01-04 21:37:00,28.4,22.7,29.16,West,270,8.1,8.1,79,0.00,CLR,SKC,0.00,WeatherDisplay:10.37,2013-01-05 02:37:00,
2013-01-04 21:42:00,28.4,22.7,29.16,North,8,11.5,11.5,79,0.00,CLR,SKC,0.00,WeatherDisplay:10.37,2013-01-05 02:42:00,
2013-01-04 21:47:00,28.2,22.5,29.16,North,0,5.8,5.8,79,0.00,CLR,SKC,0.00,WeatherDisplay:10.37,2013-01-05 02:47:00,
2013-01-04 21:52:00,28.4,22.7,29.16,NW,315,12.7,12.7,79,0.00,CLR,SKC,0.00,WeatherDisplay:10.37,2013-01-05 02:52:00,
2013-01-04 21:57:00,28.4,22.7,29.16,SE,135,6.9,6.9,79,0.00,CLR,SKC,0.00,WeatherDisplay:10.37,2013-01-05 02:57:00,
2013-01-04 22:02:00,28.4,22.7,29.16,North,0,6.9,6.9,79,0.00,CLR,SKC,0.00,WeatherDisplay:10.37,2013-01-05 03:02:00,
2013-01-04 22:07:00,28.4,22.7,29.16,North,0,6.9,6.9,79,0.00,CLR,SKC,0.00,WeatherDisplay:10.37,2013-01-05 03:07:00,
2013-01-04 22:12:00,28.2,22.5,29.17,West,270,5.8,5.8,79,0.00,CLR,SKC,0.00,WeatherDisplay:10.37,2013-01-05 03:12:00,
2013-01-04 22:17:00,28.2,22.5,29.17,South,180,8.1,8.1,79,0.00,CLR,SKC,0.00,WeatherDisplay:10.37,2013-01-05 03:17:00,
2013-01-04 22:22:00,28.2,22.5,29.17,North,6,11.5,11.5,79,0.00,CLR,SKC,0.00,WeatherDisplay:10.37,2013-01-05 03:22:00,
2013-01-04 22:27:00,28.2,22.5,29.17,NNE,12,17.3,17.3,79,0.00,CLR,SKC,0.00,WeatherDisplay:10.37,2013-01-05 03:27:00,
2013-01-04 22:32:00,28.2,22.2,29.18,NW,315,10.4,10.4,78,0.00,CLR,SKC,0.00,WeatherDisplay:10.37,2013-01-05 03:32:00,
2013-01-04 22:37:00,28.0,22.4,29.18,North,1,11.5,11.5,79,0.00,CLR,SKC,0.00,WeatherDisplay:10.37,2013-01-05 03:37:00,
2013-01-04 22:42:00,28.2,22.2,29.18,North,0,8.1,8.1,78,0.00,CLR,SKC,0.00,WeatherDisplay:10.37,2013-01-05 03:42:00,
2013-01-04 22:47:00,28.2,21.9,29.18,South,180,13.8,13.8,77,0.00,CLR,SKC,0.00,WeatherDisplay:10.37,2013-01-05 03:47:00,
2013-01-04 22:52:00,28.0,22.1,29.18,SE,135,15.2,15.2,78,0.00,CLR,SKC,0.00,WeatherDisplay:10.37,2013-01-05 03:52:00,
2013-01-04 22:57:00,28.2,21.9,29.19,North,0,16.1,16.1,77,0.00,CLR,SKC,0.00,WeatherDisplay:10.37,2013-01-05 03:57:00,
2013-01-04 23:02:00,28.2,21.9,29.19,SE,135,6.9,6.9,77,0.00,CLR,SKC,0.00,WeatherDisplay:10.37,2013-01-05 04:02:00,
2013-01-04 23:07:00,28.0,21.8,29.19,North,6,15.0,15.0,77,0.00,CLR,SKC,0.00,WeatherDisplay:10.37,2013-01-05 04:07:00,
2013-01-04 23:12:00,27.9,21.6,29.19,South,180,10.4,10.4,77,0.00,CLR,SKC,0.00,WeatherDisplay:10.37,2013-01-05 04:12:00,
2013-01-04 23:17:00,27.9,21.6,29.19,North,5,9.2,9.2,77,0.00,CLR,SKC,0.00,WeatherDisplay:10.37,2013-01-05 04:17:00,
2013-01-04 23:22:00,27.7,21.4,29.19,NNE,13,6.9,6.9,77,0.00,CLR,SKC,0.00,WeatherDisplay:10.37,2013-01-05 04:22:00,
2013-01-04 23:27:00,27.7,21.4,29.19,East,90,17.3,17.3,77,0.00,CLR,SKC,0.00,WeatherDisplay:10.37,2013-01-05 04:27:00,
2013-01-04 23:32:00,27.7,21.1,29.19,North,2,16.1,16.1,76,0.00,CLR,SKC,0.00,WeatherDisplay:10.37,2013-01-05 04:32:00,
2013-01-04 23:37:00,27.7,21.1,29.19,North,8,13.7,13.7,76,0.00,CLR,SKC,0.00,WeatherDisplay:10.37,2013-01-05 04:37:00,
2013-01-04 23:42:00,27.5,20.9,29.19,NNE,14,8.1,8.3,76,0.00,CLR,SKC,0.00,WeatherDisplay:10.37,2013-01-05 04:42:00,
2013-01-04 23:47:00,27.3,20.8,29.19,North,1,12.7,12.7,76,0.00,CLR,SKC,0.00,WeatherDisplay:10.37,2013-01-05 04:47:00,
2013-01-04 23:52:00,27.5,20.9,29.19,SE,135,16.1,16.1,76,0.00,CLR,SKC,0.00,WeatherDisplay:10.37,2013-01-05 04:52:00,
2013-01-04 23:57:00,27.1,20.6,29.19,West,270,8.1,8.1,76,0.00,CLR,SKC,0.00,WeatherDisplay:10.37,2013-01-05 04:57:00,